Weather Roundup
Issued by NWS

Home | Current Version | Previous Version | Text Only | Print | Product List | Glossary On
Versions: 1 2 3 4 5 6 7 8 9 10 11 12 13 14 15 16 17 18 19 20 21 22 23 24 25 26 27 28 29 30 31 32 33 34 35 36 37 38 39 40 41 42 43 44 45 46 47 48 49 50
562
NZUS93 KARX 191259
HRRWXR

CURRENT HOURLY OBSERVATIONS ACROSS
MUCH OF THE UPPER MISSISSIPPI VALLEY
NATIONAL WEATHER SERVICE LA CROSSE WI
700 AM CST THU JAN 19 2017


...SOUTHEAST MINNESOTA...


CITY           SKY/WX    TMP DP  RH WIND       PRES   REMARKS
ROCHESTER      FOG       30  30 100 S10       29.86S VSB 1/2 WCI  21
ROCHESTER/MAYO CLOUDY    30  30 100 SE6       29.86F VSB 1/4 WCI  24
WINONA         CLEAR     32  32 100 CALM      29.90F FOG
AUSTIN         FOG       30  30 100 S5        29.84F VSB 1/4 WCI  25
ALBERT LEA     FOG       30  30 100 S5        29.83F VSB 1/4 WCI  25
DODGE CENTER   FOG       30  30 100 S9        29.84F VSB 1/2 WCI  22
PRESTON        FOG       30  29  97 S7        29.88S VSB 1/4 WCI  23
OWATONNA       FOG       32  30  93 SE8       29.83F VSB 1   WCI  25
FARIBAULT      CLEAR     30  30 100 S7        29.84S FOG     WCI  23
$$

...ELSEWHERE IN MINNESOTA...


CITY           SKY/WX    TMP DP  RH WIND       PRES   REMARKS
MINNEAPOLIS    CLEAR     33  29  85 SE6       29.82S WCI  28
INTNL FALLS    CLOUDY    23  20  88 S3        29.68R
DULUTH         FOG       33  33 100 SW12      29.76S VSB 1/4 WCI  24
RED WING       CLEAR     30  28  93 SE6       29.85F WCI  24
REDWOOD FALLS  CLEAR     33  29  85 S10       29.75F WCI  25
MANKATO        CLEAR     33  31  92 S9        29.82S FOG     WCI  25
WORTHINGTON    CLEAR     35  33  92 S13       29.76F WCI  26
FAIRMONT       NOT AVBL
$$

...SOUTHWEST WISCONSIN...


CITY           SKY/WX    TMP DP  RH WIND       PRES   REMARKS
LA CROSSE      MOCLDY    35  32  88 S8        29.91F FOG     WCI  29
PRAIRIE DU CHI CLOUDY    33  32  96 CALM      29.93F FOG
BOSCOBEL       CLOUDY    34  33  96 CALM      29.94F FOG
LONE ROCK      NOT AVBL
PLATTEVILLE    CLOUDY    32  32 100 SE6       29.94F VSB 1/4 WCI  26
FORT MC COY    FOG       26  26 100 CALM      29.92F VSB 1/2
MAUSTON-NEW LI SUNNY     32  32  99 CALM      29.91F FOG
VIROQUA        CLOUDY    32  32 100 S8        29.90S VSB 1/2 WCI  24
WIS DELLS      FOG       28  28  98 CALM      29.92F VSB 1
$$

...ELSEWHERE IN WISCONSIN...


CITY           SKY/WX    TMP DP  RH WIND       PRES   REMARKS
MILWAUKEE      FOG       34  33  96 SW5       29.97F VSB 1   WCI  30
MADISON        FOG       32  32 100 S6        29.96R VSB 1/2 WCI  26
GREEN BAY      CLOUDY    34  34 100 SW6       29.95S FOG     WCI  29
EAU CLAIRE     NOT AVBL
BLACK RVR FLS    N/A     23  23 100 CALM      29.90F FOG
MEDFORD        FOG       31  31 100 S5        29.88R VSB 1/4 WCI  26
WAUSAU         FOG       31  31 100 S6        29.89R VSB 1/4 WCI  25
WIS RAPIDS     FOG       33  33 100 S7        29.94R VSB 1   WCI  27
MARSHFIELD     FOG       32  31  96 S6        29.89S VSB 1/4 WCI  26
RICE LAKE      FOG       30  30 100 SE5       29.87S VSB<1/4 WCI  25
$$

...NORTHEAST IOWA...


CITY           SKY/WX    TMP DP  RH WIND       PRES   REMARKS
WATERLOO       FOG       31  30  96 SE5       29.89S VSB 1/4 WCI  26
DUBUQUE        FOG       30  29  96 S7        29.92F VSB 1/4 WCI  23
DECORAH        FOG       30  30 100 VRB7      29.89S VSB<1/4 WCI  23
MASON CITY     FOG       31  30  96 S10       29.86R VSB 1/4 WCI  22
CHARLES CITY   FOG       32  32 100 S8        29.88S VSB<1/4 WCI  25
OELWEIN        FOG       30  30 100 SE7       29.89S VSB<1/4 WCI  23
$$

...ELSEWHERE IN IOWA...


CITY           SKY/WX    TMP DP  RH WIND       PRES   REMARKS
DES MOINES     MOCLDY    32  31  96 E5        29.85F FOG     WCI  27
IOWA CITY      CLEAR     28  27  96 CALM      29.93S FOG
FORT DODGE     CLOUDY    32  30  93 SE7       29.84S VSB 1/2 WCI  26
MARSHALLTOWN   FOG       30  30 100 SE7       29.87S VSB 1/4 WCI  23
CEDAR RAPIDS   FOG       29  29 100 SE6       29.89F VSB 1/4 WCI  23
$$

...NORTHERN ILLINOIS...


CITY           SKY/WX    TMP DP  RH WIND       PRES   REMARKS
CHICAGO-OHARE  CLOUDY    33  33 100 S5        29.99F FOG     WCI  29
CHICAGO-MIDWAY CLOUDY    33  32  96 S5        30.01F FOG     WCI  29
MOLINE         CLEAR     28  26  92 E6        29.93F FOG     WCI  22
ROCKFORD       PTCLDY    30  29  96 S5        29.98F FOG     WCI  25
PEORIA         CLOUDY    34  34 100 E3        29.97F FOG
$$

NOTE: "FAIR" INDICATES FEW OR NO CLOUDS BELOW 12,000 FEET WITH NO
SIGNIFICANT WEATHER AND/OR OBSTRUCTIONS TO VISIBILITY. WIND
SPEEDS ARE IN MILES-PER-HOUR.




USA.gov is the U.S. government's official web portal to all federal, state and local government web resources and services.